Meteo Giornale » Osservazioni meteo Canada » Prince Albert Sask
ore: 05:56 - Osservazioni Meteo Prince Albert Sask
Lat. 53° 13' N Lon. 105° 41' W Alt. 428 metri s.l.m.
11 °C
Nebbia
Temp. 24 Ore
10 °C
17 °C
Nord
5.5 Km/h
Dew point 11 °C
Umidità 100 %
Visibilità 2 Km
Il sole sorge alle ore 06:13
Il sole tramonta alle ore 19:52
| Data e Ora | Cielo e Fenomeni | T °C | DP °C | Um. % | Pres. hPa | Vis. km | Vento km/h | |
|---|---|---|---|---|---|---|---|---|
| Oggi h: 05:56 | Nebbia | 11 | 11 | 100 | 1011 | 2 | N 5.5 | |
| Oggi h: 05:00 | Nebbia | 11 | 11 | 100 | 1011 | 5 | O/NO 7.4 | |
| Oggi h: 04:54 | Nebbia | 11 | 11 | 100 | 1011 | 5 | N 5.5 | |
| Oggi h: 04:51 | Nebbia | 11 | 11 | 100 | 1011 | 2 | N 5.5 | |
| Oggi h: 04:42 | Foschia | 11 | 11 | 100 | 1011 | 2 | N 5.5 | |
| Oggi h: 04:40 | Foschia | 12 | 12 | 100 | 1011 | 2 | N 5.5 | |
| Oggi h: 04:30 | Foschia | 12 | 12 | 100 | 1011 | 5 | O/SO 7.4 | |
| Oggi h: 04:29 | Foschia | 12 | 12 | 100 | 1011 | 2 | O/SO 7.4 | |
| Oggi h: 04:22 | Nebbia | 12 | 12 | 100 | 1011 | 2 | O/SO 7.4 | |
| Oggi h: 04:15 | Nebbia | 11 | 11 | 100 | 1011 | 2 | O/SO 7.4 | |
| Oggi h: 04:02 | Nebbia | 10 | 10 | 100 | 1010 | 2 | N 5.5 | |
| Oggi h: 04:00 | Nebbia | 10 | 10 | 100 | 1010 | 2 | N 5.5 | |
| Oggi h: 03:53 | Nebbia | 10 | 10 | 100 | 1010 | 5 | O 7.4 | |
| Oggi h: 03:42 | Nebbia | 11 | 11 | 100 | 1010 | 5 | N 5.5 | |
| Oggi h: 03:32 | Foschia | 12 | 12 | 100 | 1010 | 2 | N 3.7 | |
| Oggi h: 03:27 | Foschia | 12 | 12 | 100 | 1010 | 2 | N 3.7 | |
| Oggi h: 03:26 | Foschia | 12 | 12 | 100 | 1010 | 5 | N 3.7 | |
| Oggi h: 03:00 | Sereno | 12 | 12 | 100 | 1010 | 14 | O 9.3 | |
| Oggi h: 02:00 | Sereno | 13 | 12 | 93 | 1010 | 14 | O 11.1 | |
| Oggi h: 01:00 | Sereno | 13 | 13 | 100 | 1009 | 14 | O/NO 13 | |
| Oggi h: 00:00 | Sereno | 14 | 13 | 93 | 1009 | 14 | O/NO 13 | |
| Ieri h: 23:00 | Sereno | 14 | 14 | 100 | 1008 | 14 | O/NO 11.1 | |
| Ieri h: 22:00 | Poco Nuvoloso | 16 | 14 | 87 | 1008 | 14 | O/NO 14.8 | |
| Ieri h: 21:00 | Molto Nuvoloso | 16 | 15 | 93 | 1007 | 24 | O/NO 18.5 | |
| Ieri h: 20:00 | Molto Nuvoloso | 16 | 14 | 87 | 1006 | 24 | O/NO 14.8 | |
| Ieri h: 19:38 | Molto Nuvoloso | 17 | 14 | 82 | 1006 | 24 | NO 14.8 | |
| Ieri h: 19:19 | Pioggia | 17 | 15 | 88 | 1006 | 24 | NO 13 | |
| Ieri h: 19:00 | Molto Nuvoloso | 17 | 15 | 88 | 1005 | 24 | N/NO 16.7 | |
| Ieri h: 18:06 | Molto Nuvoloso | 17 | 15 | 88 | 1005 | 24 | NO 18.5 | |
| Ieri h: 18:00 | Pioggia | 17 | 15 | 88 | 1005 | 24 | NO 20.3 | |
| Ieri h: 17:00 | Pioggia | 16 | 15 | 93 | 1004 | 24 | NO 25.9 | |
| Ieri h: 16:45 | Pioggia | 16 | 15 | 93 | 1004 | 10 | O/NO 20.3 | |
| Ieri h: 16:00 | Coperto | 16 | 15 | 93 | 1003 | 19 | NO 27.8 | |
| Ieri h: 15:47 | Coperto | 16 | 15 | 93 | 1003 | 10 | NO 24 | |
| Ieri h: 15:15 | Pioggia Foschia | 16 | 15 | 93 | 1002 | 3 | NO 20.3 | |
| Ieri h: 15:00 | Pioggia Foschia | 15 | 15 | 100 | 1002 | 5 | NO 13 | |
| Ieri h: 14:32 | Pioggia Foschia | 15 | 15 | 100 | 1002 | 5 | NO 11.1 | |
| Ieri h: 14:00 | Pioggia | 15 | 15 | 100 | 1001 | 13 | NO 11.1 | |
| Ieri h: 13:00 | Pioggia | 14 | 13 | 93 | 1000 | 24 | N 0 | |
| Ieri h: 12:46 | Pioggia | 14 | 13 | 93 | 1000 | 19 | O/NO 9.3 | |
| Ieri h: 12:00 | Coperto | 14 | 13 | 93 | 999 | 19 | N 5.5 | |
| Ieri h: 11:12 | Coperto | 13 | 13 | 100 | 998 | 10 | SE 9.3 | |
| Ieri h: 11:00 | Pioggia | 13 | 13 | 100 | 998 | 13 | S/SE 9.3 | |
| Ieri h: 10:00 | Pioggia Foschia | 12 | 12 | 100 | 997 | 6 | S/SO 11.1 | |
| Ieri h: 09:48 | Pioggia Foschia | 12 | 12 | 100 | 997 | 6 | S/SO 18.5 | |
| Ieri h: 09:00 | Pioggia Foschia | 12 | 12 | 100 | 997 | 6 | S/SO 16.7 | |
| Ieri h: 08:44 | Pioggia Foschia | 12 | 12 | 100 | 996 | 6 | S/SO 16.7 | |
| Ieri h: 08:09 | Pioggia Foschia | 12 | 12 | 100 | 996 | 3 | S/SO 13 | |
| Ieri h: 08:00 | Pioggia Foschia | 12 | 12 | 100 | 996 | 6 | S/SO 14.8 | |
| Ieri h: 07:45 | Pioggia Foschia | 12 | 11 | 93 | 996 | 6 | S/SO 16.7 | |
| Ieri h: 07:20 | Pioggia Foschia | 11 | 11 | 100 | 996 | 5 | S 11.1 | |
| Ieri h: 07:00 | Pioggia Foschia | 11 | 11 | 100 | 996 | 2 | S 14.8 | |
| Ieri h: 06:44 | Pioggia Foschia | 11 | 11 | 100 | 996 | 3 | S/SE 9.3 | |



